Location: Roland
(31.1349°N, 85.4372°W)
Time: 03:54:26
(UTC+00:00)

Courier 1B - Pass Details

Date: 25 April 2021
Orbit: 962 x 1209 km, 28.3° (Epoch: 07 May)

Event Time Altitude Azimuth Distance (km) Brightness Sun altitude
Rises 18:09:04 0° 266° (W) 3,810 10.7 71.1°
Reaches altitude 10° 18:11:51 10° 264° (W) 2,820 10.2 70.8°
Maximum altitude 18:18:38 71° 182° (S) 1,044 10.3 70.2°
Drops below altitude 10° 18:25:06 10° 99° (E) 2,699 9.9 69.5°
Sets 18:27:43 0° 97° (E) 3,636 10.4 69.1°
